Other Public Products
Issued by NWS Grand Forks, ND

Home | Current Version | Previous Version | Text Only | Print | Product List | Glossary Off
Versions: 1 2 3 4 5 6 7 8 9 10 11 12 13 14 15 16 17 18 19 20 21 22 23 24 25 26 27 28 29 30 31 32 33 34 35 36 37 38 39 40 41 42 43 44 45 46 47 48 49 50

000
FPUS83 KFGF 040631
OPUFGF
PRAIRIE TO PINES WEATHER ROUNDUP
NATIONAL WEATHER SERVICE EASTERN NORTH DAKOTA/GRAND FORKS ND
100 AM CDT SAT JUL 04 2015

 **SATELLITE DATA USED TO AUGMENT SKY COVER AT AUTOMATED STATIONS**
 *****  WEATHER ACROSS EASTERN NORTH DAKOTA  *****

CITY           SKY/WX    TMP DP  RH WIND       PRES   REMARKS
GRAND FORKS    CLOUDY    62  60  93 CALM      29.89S FOG
6HR MIN TEMP:  61; 6HR MAX TEMP:  78;

GRAND FORKS AF CLEAR     61  59  94 CALM      29.91R FOG
GRAND CITY NWS   N/A     63 N/A N/A E2          N/A
BUXTON         NOT AVBL
DEVILS LAKE    CLEAR     68  59  73 SE9       29.90S
6HR MIN TEMP:  68; 6HR MAX TEMP:  81;

FARGO          CLEAR     64  59  83 SE6       29.90S HAZE
6HR MIN TEMP:  63; 6HR MAX TEMP:  80;

WAHPETON ARPT    N/A     63  61  94 E3        29.92S
$$

 *****  WEATHER ACROSS CENTRAL AND WESTERN NORTH DAKOTA  *****

CITY           SKY/WX    TMP DP  RH WIND       PRES   REMARKS
JAMESTOWN      CLOUDY    67  63  87 S3        29.91S FOG
6HR MIN TEMP:  67; 6HR MAX TEMP:  80;

BISMARCK       CLOUDY    67  64  90 SE3       29.91S FOG
6HR MIN TEMP:  66; 6HR MAX TEMP:  80;

MINOT          CLEAR     67  64  90 SE6       29.85F FOG
6HR MIN TEMP:  66; 6HR MAX TEMP:  80;

MINOT AFB      CLEAR     66  66 100 S7        29.84F
6HR MIN TEMP:  65; 6HR MAX TEMP:  82;

GARRISON         N/A     68  64  87 S6        29.88F
6HR MIN TEMP:  67; 6HR MAX TEMP:  78;

WILLISTON      PTCLDY    74  64  71 S7        29.84F
6HR MIN TEMP:  74; 6HR MAX TEMP:  87;

DICKINSON      CLEAR     67  63  87 SE10      29.89F FOG
6HR MIN TEMP:  67; 6HR MAX TEMP:  80;

HETTINGER      CLEAR     65  61  87 SE7       29.93S FOG
6HR MIN TEMP:  65; 6HR MAX TEMP:  81;

$$

 *****  OTHER OBSERVATIONS NORTHEAST NORTH DAKOTA  *****

CITY           SKY/WX    TMP DP  RH WIND       PRES   REMARKS
WALHALLA       FAIR      64  64 100 MISG      29.89S FOG
LANGDON        FAIR      61  59  94 S7        29.92F FOG
CAVALIER       FAIR      63  59  88 S3        29.89S FOG
GRAFTON        FAIR      61  61 100 CALM      29.91S FOG
CANDO          FAIR      61  59  94 SE8       29.90F
FORT TOTTEN      N/A     67  60  76 SE6       29.95S
ROLLA          CLOUDY    64  59  82 S10       29.90F
RUGBY          NOT AVBL
 ***** THE ABOVE OBSERVATIONS ARE NON NWS ARE NOT QUALITY
        CONTROLLED AND MAY MIS-REPORT RAIN FOR SNOW...
$$

 *****  OTHER OBSERVATIONS SOUTHEAST NORTH DAKOTA *****

CITY           SKY/WX    TMP DP  RH WIND       PRES   REMARKS
COOPERSTOWN    NOT AVBL
VALLEY CITY    MOCLDY    64  64 100 S3        29.92S FOG
OAKES            N/A     63  63 100 S6        29.92S FOG
GWINNER          N/A    N/A N/A N/A S3        29.92F
SHEYENNE NWR     N/A     65  64  95 CALM      29.95S
BUFFALO        NOT AVBL
WYNDMERE       NOT AVBL
 ***** THE ABOVE OBSERVATIONS ARE NON NWS ARE NOT QUALITY
       CONTROLLED AND MAY MIS-REPORT RAIN FOR SNOW...
$$

  *****  WEATHER ACROSS NORTHERN MINNESOTA  *****

CITY           SKY/WX    TMP DP  RH WIND       PRES   REMARKS
FLAG ISLAND    CLEAR     68  59  73 CALM      29.90R
WARROAD        CLEAR     63  57  82 S3        29.92S
ROSEAU         CLEAR     61  55  82 CALM      29.92R
HALLOCK        CLEAR     61  57  88 SE5       29.89F FOG
THF RVR FALLS  CLEAR     61  59  94 CALM      29.92S
6HR MIN TEMP:  61; 6HR MAX TEMP:  77;

HALSTAD        NOT AVBL
FOSSTON        CLEAR     55  50  82 CALM      29.93F HAZE
BAUDETTE       CLEAR     57  55  93 E3        29.91S
6HR MIN TEMP:  57; 6HR MAX TEMP:  78;

WASKISH        CLEAR     55  54  94 CALM      29.93S
CROOKSTON      CLEAR     63  59  88 CALM      29.92R FOG
$$
  *****  WEATHER ACROSS CENTRAL AND WEST MINNESOTA  *****

CITY           SKY/WX    TMP DP  RH WIND       PRES   REMARKS
BEMIDJI        CLEAR     57  55  94 CALM      29.94S FOG
PARK RAPIDS    CLOUDY    60  57  89 CALM      29.94S FOG
6HR MIN TEMP:  61; 6HR MAX TEMP:  79;

WADENA         MOCLDY    59  57  94 CALM      29.94S FOG
DETROIT LAKES  CLEAR     63  61  94 CALM      29.95S FOG
MOORHEAD       CLEAR     64  61  88 SE5       29.91F FOG
FERGUS FALLS   CLEAR     64  64 100 CALM      29.92S FOG
ELBOW LAKE     FAIR      69  64  86 E3        29.93R HAZE
6HR MIN TEMP:  66; 6HR MAX TEMP:  78;

MORRIS MN      FOG       64  63  94 CALM      29.92S VSB 3/4
STAPLES        CLEAR     61  59  94 CALM      29.94S FOG
WHEATON        CLEAR     59  57  94 SE3       29.94S FOG
$$
  *****  WEATHER ELSEWHERE ACROSS MINNESOTA  *****

CITY           SKY/WX    TMP DP  RH WIND       PRES   REMARKS
DULUTH         CLEAR     59  55  87 N5        29.93S
6HR MIN TEMP:  59; 6HR MAX TEMP:  77;

INTRNTL FALLS  CLEAR     51  50  96 CALM      29.93S
6HR MIN TEMP:  51; 6HR MAX TEMP:  77;

ELY            CLEAR     54  50  87 CALM      29.95S
CLOQUET        CLEAR     57  54  88 N6        29.93S
BRAINERD       FOG       58  58 100 CALM      29.94S VSB 1
6HR MIN TEMP:  58; 6HR MAX TEMP:  78;

HIBBING        CLEAR     53  52  96 CALM      29.95R
6HR MIN TEMP:  52; 6HR MAX TEMP:  77;

ALEXANDRIA     CLOUDY    63  63 100 CALM      29.95F FOG
6HR MIN TEMP:  63; 6HR MAX TEMP:  78;

SAINT CLOUD    FOG       61  61 100 CALM      29.92S VSB 1/4
6HR MIN TEMP:  61; 6HR MAX TEMP:  79;

MINNEAPOLIS    MOCLDY    70  59  68 CALM      29.92S
6HR MIN TEMP:  70; 6HR MAX TEMP:  78;

$$

  *****  WEATHER ACROSS SOUTH DAKOTA  *****

CITY           SKY/WX    TMP DP  RH WIND       PRES   REMARKS
SIOUX FALLS    CLEAR     69  62  78 SW6       29.97R
6HR MIN TEMP:  67; 6HR MAX TEMP:  78;

BROOKINGS      CLEAR     64  61  88 S3        29.98R
WATERTOWN      CLOUDY    69  64  84 CALM      29.95S HAZE
6HR MIN TEMP:  67; 6HR MAX TEMP:  79;

HURON          CLEAR     69  65  86 S7        29.93S
6HR MIN TEMP:  68; 6HR MAX TEMP:  80;

SISSETON         N/A     64  62  93 SW5       29.92S
ABERDEEN       CLOUDY    65  63  93 S7        29.92S FOG
6HR MIN TEMP:  64; 6HR MAX TEMP:  82;

MITCHELL       CLEAR     70  64  81 S6        29.96R
PIERRE         CLEAR     68  63  84 SE7       29.92S
6HR MIN TEMP:  66; 6HR MAX TEMP:  79;

MOBRIDGE       CLEAR     70  69  97 SE7       29.89S FOG
RAPID CITY     PTCLDY    63  60  90 S3        29.96F
6HR MIN TEMP:  63; 6HR MAX TEMP:  80; 6HR PCP: TRACE;

$$

  *****  SOME WEATHER IN NEARBY STATES *****

CITY           SKY/WX    TMP DP  RH WIND       PRES   REMARKS
GLASGOW MT     CLEAR     69  57  65 E12       29.78F
6HR MIN TEMP:  68; 6HR MAX TEMP:  88;

GREAT FALLS MT PTCLDY    73  45  36 E6        29.83S
6HR MIN TEMP:  72; 6HR MAX TEMP:  94;

CHEYENNE WY    MOCLDY    63  54  72 SW5       30.14F
6HR MIN TEMP:  63; 6HR MAX TEMP:  75; 6HR PCP: TRACE;

SCOTTSBLUFF NE CLOUDY    71  57  61 SE9       30.01F
6HR MIN TEMP:  71; 6HR MAX TEMP:  85;

OMAHA NE       PTCLDY    63  56  78 E5        29.98F
6HR MIN TEMP:  63; 6HR MAX TEMP:  79;

DES MOINES IA  CLEAR     67  57  70 CALM      29.98S
6HR MIN TEMP:  66; 6HR MAX TEMP:  78;

DAVENPORT IA   CLEAR     58  56  93 CALM      29.98R
6HR MIN TEMP:  58; 6HR MAX TEMP:  75;

CHICAGO IL     PTCLDY    62  56  80 CALM      29.96R
6HR MIN TEMP:  61; 6HR MAX TEMP:  73;

EAU CLAIRE WI  MOCLDY    64  57  78 SW6       29.91S
6HR MIN TEMP:  64; 6HR MAX TEMP:  74;

LA CROSSE WI   CLEAR     64  60  87 SE5       29.93S
6HR MIN TEMP:  63; 6HR MAX TEMP:  77;

$$

  *****  SOME NATIONAL WEATHER *****

CITY           SKY/WX    TMP DP  RH WIND       PRES   REMARKS



USA.gov is the U.S. government's official web portal to all federal, state and local government web resources and services.